Manistique, MI

2:47 PM EDT on May 29, 2017 (GMT -0400)
Schoolcraft County

Weather History for KISQ - August, 2013

Change the Weather History Date:

Friday, August 2, 2013

  Actual Average Record
Temperature  
Mean Temperature 62 °F -  
Max Temperature 75 °F 75 °F 91 °F (1955)
Min Temperature 50 °F 57 °F 44 °F (1965)
Degree Days  
Heating Degree Days 2    
Growing Degree Days 12 (Base 50)    
Moisture  
Dew Point 54 °F    
Average Humidity 78    
Maximum Humidity 99    
Minimum Humidity 47    
Precipitation  
Precipitation 0.02 in - - ()
Sea Level Pressure  
Sea Level Pressure 29.83 in    
Wind  
Wind Speed 3 mph (NW)    
Max Wind Speed 13 mph    
Max Gust Speed 20 mph    
Visibility 9 miles    
Events Fog , Rain    
Averages and records for this station are not official NWS values.
T = Trace of Precipitation, MM = Missing Value Source: NWS Daily Summary

Daily Weather History Graph

Daily Weather History Graph

Search for Another Location

Airport or City:

Trip Planner

Search our weather history database for the weather conditions in past years. The results will help you decide how hot, cold, wet, or windy it might be!

Date:

Astronomy

Aug. 02, 2013 Rise Set
Actual Time 6:28 AM EDT 9:12 PM EDT
Civil Twilight 5:54 AM EDT 9:46 PM EDT
Nautical Twilight 5:10 AM EDT 10:29 PM EDT
Astronomical Twilight 4:19 AM EDT 11:20 PM EDT
Moon 2:46 AM EDT (8/2) 6:11 PM EDT (8/2)
Length of Visible Light 15h 52m
Length of Day
14h 43m
Waning Crescent, 16% of the Moon is Illuminated
Aug 2
Waning Crescent
Aug 6
New
Aug 14
First Quarter
Aug 20
Full
Aug 28
Last Quarter

Hourly Weather History & Observations

Time (EDT) Temp. Dew Point Humidity Pressure Visibility Wind Dir Wind Speed Gust Speed Precip Events Conditions
12:14 AM 52.7 °F 52.3 °F 99% 29.87 in 2.5 mi Calm Calm - N/A   Clear
12:35 AM 52.7 °F 52.2 °F 98% 29.86 in 5.0 mi Calm Calm - N/A   Clear
12:55 AM 52.9 °F 52.7 °F 99% 29.86 in 1.8 mi Calm Calm - N/A   Mist
1:14 AM 52.2 °F 51.4 °F 97% 29.85 in 5.0 mi Calm Calm - N/A   Clear
1:35 AM 52.5 °F 52.2 °F 99% 29.85 in 1.8 mi Calm Calm - N/A   Scattered Clouds
1:55 AM 51.8 °F 51.6 °F 99% 29.84 in 1.2 mi Calm Calm - N/A   Overcast
2:14 AM 51.1 °F 50.9 °F 99% 29.83 in 0.2 mi Calm Calm - N/A Fog Fog
2:35 AM 51.3 °F 51.1 °F 99% 29.83 in 0.5 mi Calm Calm - N/A Fog Fog
2:54 AM 51.1 °F 50.9 °F 99% 29.82 in 10.0 mi Calm Calm - N/A   Mostly Cloudy
3:15 AM 50.2 °F 49.6 °F 98% 29.81 in 3.0 mi Calm Calm - N/A   Clear
3:35 AM 50.0 °F 49.5 °F 98% 29.81 in 10.0 mi Calm Calm - N/A   Clear
3:54 AM 51.3 °F 50.9 °F 99% 29.81 in 10.0 mi Calm Calm - N/A   Clear
4:15 AM 50.7 °F 50.0 °F 97% 29.81 in 10.0 mi Calm Calm - N/A   Clear
4:34 AM 50.4 °F 49.3 °F 96% 29.80 in 10.0 mi Calm Calm - N/A   Mostly Cloudy
4:55 AM 52.3 °F 51.8 °F 98% 29.81 in 10.0 mi South 3.5 mph - N/A   Mostly Cloudy
5:14 AM 53.2 °F 52.0 °F 95% 29.79 in 10.0 mi SSE 4.6 mph - N/A   Overcast
5:35 AM 59.0 °F 58.5 °F 98% 29.80 in 10.0 mi South 3.5 mph - N/A   Mostly Cloudy
5:54 AM 59.9 °F 59.0 °F 97% 29.80 in 10.0 mi South 3.5 mph - N/A   Mostly Cloudy
6:14 AM 61.0 °F 60.4 °F 98% 29.81 in 10.0 mi South 3.5 mph - N/A Rain Rain
6:35 AM 61.9 °F 60.8 °F 96% 29.81 in 10.0 mi WSW 5.8 mph - 0.01 in   Overcast
6:54 AM 59.9 °F 57.7 °F 93% 29.81 in 10.0 mi West 6.9 mph - 0.01 in   Overcast
7:15 AM 59.0 °F 56.5 °F 91% 29.81 in 10.0 mi West 6.9 mph - N/A Rain Rain
7:35 AM 58.1 °F 56.7 °F 95% 29.81 in 10.0 mi West 5.8 mph - 0.01 in Rain Light Rain
7:54 AM 58.3 °F 57.0 °F 96% 29.81 in 7.0 mi Calm Calm - 0.01 in Rain Light Rain
8:15 AM 59.0 °F 57.0 °F 93% 29.81 in 10.0 mi Calm Calm - N/A   Light Drizzle
8:35 AM 59.5 °F 58.1 °F 95% 29.80 in 10.0 mi Calm Calm - N/A   Overcast
8:54 AM 59.5 °F 58.1 °F 95% 29.80 in 10.0 mi NNW 4.6 mph - N/A   Mostly Cloudy
9:15 AM 62.4 °F 58.6 °F 87% 29.80 in 10.0 mi NW 5.8 mph - N/A   Scattered Clouds
9:34 AM 63.9 °F 58.1 °F 81% 29.80 in 10.0 mi NW 4.6 mph - N/A   Clear
9:55 AM 65.3 °F 58.6 °F 79% 29.80 in 10.0 mi WNW 5.8 mph - N/A   Clear
10:15 AM 66.2 °F 58.3 °F 76% 29.81 in 10.0 mi NW 8.1 mph - N/A   Clear
10:34 AM 67.1 °F 57.9 °F 72% 29.80 in 10.0 mi WNW 6.9 mph - N/A   Clear
10:55 AM 68.4 °F 59.0 °F 72% 29.81 in 10.0 mi West 5.8 mph - N/A   Clear
11:15 AM 69.4 °F 59.4 °F 70% 29.81 in 10.0 mi West 6.9 mph - N/A   Scattered Clouds
11:34 AM 69.6 °F 59.0 °F 69% 29.81 in 10.0 mi WSW 5.8 mph - N/A   Scattered Clouds
11:55 AM 69.6 °F 58.5 °F 68% 29.81 in 10.0 mi West 5.8 mph - N/A   Mostly Cloudy
12:15 PM 69.1 °F 57.2 °F 66% 29.81 in 10.0 mi Calm Calm - N/A   Mostly Cloudy
12:34 PM 69.1 °F 57.2 °F 66% 29.81 in 10.0 mi WNW 4.6 mph - N/A   Mostly Cloudy
12:55 PM 69.4 °F 55.8 °F 62% 29.80 in 10.0 mi WNW 5.8 mph - N/A   Scattered Clouds
1:14 PM 71.2 °F 56.1 °F 59% 29.80 in 10.0 mi WNW 9.2 mph - N/A   Mostly Cloudy
1:35 PM 71.2 °F 56.8 °F 60% 29.80 in 10.0 mi NNW 6.9 mph - N/A   Mostly Cloudy
1:55 PM 71.4 °F 55.6 °F 57% 29.80 in 10.0 mi WNW 9.2 mph - N/A   Scattered Clouds
2:14 PM 72.1 °F 56.3 °F 57% 29.80 in 10.0 mi NW 6.9 mph - N/A   Mostly Cloudy
2:35 PM 74.8 °F 55.0 °F 50% 29.81 in 10.0 mi West 5.8 mph - N/A   Overcast
2:54 PM 71.8 °F 54.3 °F 54% 29.80 in 10.0 mi WNW 8.1 mph - N/A   Mostly Cloudy
3:15 PM 75.2 °F 54.7 °F 49% 29.80 in 10.0 mi NNW 9.2 mph - N/A   Mostly Cloudy
3:34 PM 72.9 °F 56.5 °F 56% 29.81 in 10.0 mi NW 4.6 mph - N/A   Mostly Cloudy
3:54 PM 70.7 °F 54.3 °F 56% 29.81 in 10.0 mi NW 10.4 mph - N/A   Mostly Cloudy
4:15 PM 72.1 °F 53.2 °F 51% 29.81 in 10.0 mi WNW 9.2 mph 18.4 mph N/A   Mostly Cloudy
4:34 PM 70.7 °F 54.3 °F 56% 29.81 in 10.0 mi NNW 8.1 mph - N/A   Overcast
4:55 PM 71.4 °F 53.2 °F 53% 29.81 in 10.0 mi NNW 11.5 mph 16.1 mph N/A   Overcast
5:15 PM 72.9 °F 51.6 °F 47% 29.81 in 10.0 mi NW 12.7 mph 16.1 mph N/A   Mostly Cloudy
5:34 PM 73.4 °F 52.7 °F 48% 29.82 in 10.0 mi NW 11.5 mph 16.1 mph N/A   Scattered Clouds
5:55 PM 73.0 °F 52.2 °F 48% 29.83 in 10.0 mi NW 11.5 mph 19.6 mph N/A   Scattered Clouds
6:15 PM 72.7 °F 53.4 °F 51% 29.83 in 10.0 mi NNW 9.2 mph - N/A   Mostly Cloudy
6:34 PM 71.8 °F 53.4 °F 52% 29.83 in 10.0 mi North 10.4 mph 17.3 mph N/A   Mostly Cloudy
6:55 PM 70.3 °F 53.6 °F 55% 29.83 in 10.0 mi NNW 12.7 mph 17.3 mph N/A   Scattered Clouds
7:14 PM 69.8 °F 53.2 °F 56% 29.84 in 10.0 mi NNW 9.2 mph - N/A   Clear
7:35 PM 68.9 °F 53.2 °F 57% 29.85 in 10.0 mi NNW 8.1 mph - N/A   Clear
7:55 PM 67.6 °F 53.2 °F 60% 29.86 in 10.0 mi NNW 8.1 mph - N/A   Clear
8:14 PM 66.4 °F 53.2 °F 63% 29.86 in 10.0 mi NNW 9.2 mph - N/A   Clear
8:35 PM 64.9 °F 53.2 °F 66% 29.87 in 10.0 mi NNW 6.9 mph - N/A   Clear
8:55 PM 63.3 °F 52.9 °F 69% 29.88 in 10.0 mi NNW 8.1 mph - N/A   Clear
9:14 PM 62.1 °F 52.9 °F 72% 29.88 in 10.0 mi NNW 6.9 mph - N/A   Clear
9:35 PM 59.9 °F 53.1 °F 78% 29.89 in 10.0 mi NNW 4.6 mph - N/A   Clear
9:55 PM 58.6 °F 52.9 °F 81% 29.90 in 10.0 mi NNW 4.6 mph - N/A   Clear
10:14 PM 58.1 °F 52.9 °F 83% 29.90 in 10.0 mi NNW 3.5 mph - N/A   Clear
10:35 PM 55.2 °F 51.8 °F 88% 29.91 in 10.0 mi NW 4.6 mph - N/A   Clear
10:54 PM 54.9 °F 52.2 °F 91% 29.92 in 10.0 mi NW 3.5 mph - N/A   Clear
11:15 PM 55.4 °F 52.7 °F 91% 29.92 in 10.0 mi West 3.5 mph - N/A   Clear
11:35 PM 52.3 °F 51.1 °F 95% 29.92 in 10.0 mi West 4.6 mph - N/A   Clear
11:54 PM 53.6 °F 51.8 °F 94% 29.92 in 10.0 mi West 4.6 mph - N/A   Clear